{"data":{"norad_id":41166,"epoch":"2026-09-16T04:38:15.153216Z","epoch_age_seconds":412232,"freshness":"STALE","line1":"1 41166U 15077A   26259.19323094  .00027257  00000+0  39674-3 0  9997","line2":"2 41166  14.9816  97.7342 0004027 123.5908 236.4803 15.53328735596886","mean_motion":15.53328735,"eccentricity":0.0004027,"inclination_deg":14.9816,"raan_deg":97.7342,"arg_perigee_deg":123.5908,"mean_anomaly_deg":236.4803,"bstar":0.00039674,"rev_number":59688,"period_min":92.704137093041,"perigee_km":404.28276501947,"apogee_km":409.74752655768,"semimajor_km":6785.1521457886,"source":"CELESTRAK","updated_at":"2026-09-20T09:00:14.117285Z"}}